User: anonymous   Login
Location: Invercargill
(46.4000°S, 168.3500°E)
Time: 10:45:45
(UTC+12:00)
Language:

Cosmos 405 Rocket - Orbit

View from above orbital plane
View from above orbital plane
View from above satellite
View from above satellite

Ground track
Ground track

The orbit data is extracted from the following two-line orbital elements,

1 05118U 71028B   21213.54067934  .00000183  00000-0  81676-5 0  9995
2 05118  81.2534 225.2065 0045127 270.2888  89.3169 15.15087701731895
Epoch (UTC): 01 August 2021 12:58:34
Eccentricity: 0.0045127
inclination: 81.2534°
perigee height: 489 km
apogee height: 552 km
right ascension of ascending node: 225.2065°
argument of perigee: 270.2888°
revolutions per day: 15.15087701
mean anomaly at epoch: 89.3169°
orbit number at epoch: 73189

The dashed part of the orbit path shows where the satellite is in the earth's shadow,  

DLR